When you browse on this site, cookies collect data to enhance your experience and personalize the content and advertising you see.
Visit our Privacy Policy to learn more. By continuing to use the site, you agree to this use of cookies and data.
  • In Latvia
  • List of Countries
  • For 7 days
  • Water Temperature
  • Satellite Maps
  • Weather Map
  • Weather Widgets
  • user-avatar
    Login

    Hourly Weather Stepanakert

    Today, 16 July, Tuesday

    Time Temperature Precipitation Wind Pressure Humidity
    00:00 +20°C° 0 mm 1 mps 685 mmHg 86%
    01:00 +20°C° 0 mm 1 mps 685 mmHg 87%
    02:00 +20°C° 0 mm 1 mps 686 mmHg 87%
    03:00 +20°C° 0 mm 1 mps 686 mmHg 90%
    04:00 +21°C° 0 mm 1 mps 686 mmHg 88%
    05:00 +21°C° 0 mm 1 mps 686 mmHg 85%
    06:00 +22°C° 0 mm 1 mps 687 mmHg 83%
    07:00 +23°C° 0 mm 1 mps 687 mmHg 77%
    08:00 +25°C° 0 mm 1 mps 687 mmHg 72%
    09:00 +26°C° 0 mm 1 mps 687 mmHg 64%
    10:00 +28°C° 0 mm 2 mps 687 mmHg 60%
    11:00 +29°C° 0 mm 2 mps 687 mmHg 57%
    12:00 +30°C° 0 mm 2 mps 687 mmHg 53%
    13:00 +30°C° 0 mm 2 mps 687 mmHg 52%
    14:00 +31°C° 0 mm 3 mps 686 mmHg 50%
    15:00 +31°C° 0 mm 3 mps 686 mmHg 49%
    16:00 +31°C° 0 mm 2 mps 686 mmHg 51%
    17:00 +30°C° 0 mm 2 mps 686 mmHg 53%
    18:00 +30°C° 0 mm 1 mps 686 mmHg 55%
    19:00 +28°C° 0 mm 1 mps 686 mmHg 59%
    20:00 +27°C° 0 mm 1 mps 687 mmHg 62%
    21:00 +25°C° 0 mm 1 mps 687 mmHg 66%
    22:00 +25°C° 0 mm 1 mps 687 mmHg 67%
    23:00 +24°C° 0 mm 2 mps 687 mmHg 67%

    Tomorrow, 17 July, Wednesday

    Time Temperature Precipitation Wind Pressure Humidity
    00:00 +24°C° 0 mm 2 mps 687 mmHg 68%
    01:00 +23°C° 0 mm 2 mps 687 mmHg 68%
    02:00 +23°C° 0 mm 1 mps 687 mmHg 67%
    03:00 +22°C° 0 mm 1 mps 687 mmHg 67%
    04:00 +22°C° 0 mm 1 mps 687 mmHg 67%
    05:00 +23°C° 0 mm 1 mps 687 mmHg 67%
    06:00 +23°C° 0 mm 1 mps 688 mmHg 67%
    07:00 +25°C° 0 mm 1 mps 688 mmHg 63%
    08:00 +26°C° 0 mm 1 mps 688 mmHg 59%
    09:00 +27°C° 0 mm 2 mps 688 mmHg 56%
    10:00 +28°C° 0 mm 2 mps 688 mmHg 54%
    11:00 +30°C° 0 mm 3 mps 688 mmHg 52%
    12:00 +31°C° 0 mm 3 mps 688 mmHg 50%
    13:00 +32°C° 0 mm 4 mps 688 mmHg 49%
    14:00 +32°C° 0 mm 4 mps 687 mmHg 47%
    15:00 +33°C° 0 mm 4 mps 687 mmHg 46%
    16:00 +32°C° 0 mm 4 mps 687 mmHg 50%
    17:00 +29°C° 0 mm 4 mps 687 mmHg 54%
    18:00 +28°C° 0 mm 4 mps 687 mmHg 58%
    19:00 +27°C° 0 mm 3 mps 687 mmHg 63%
    20:00 +25°C° 0 mm 2 mps 687 mmHg 67%
    21:00 +24°C° 0 mm 1 mps 687 mmHg 71%
    22:00 +23°C° 0 mm 1 mps 687 mmHg 71%
    23:00 +23°C° 0 mm 1 mps 687 mmHg 71%

    Day after tomorrow, 18 July, Thursday

    Time Temperature Precipitation Wind Pressure Humidity
    00:00 +23°C° 0 mm 1 mps 687 mmHg 70%
    01:00 +23°C° 0 mm 1 mps 687 mmHg 72%
    02:00 +22°C° 0 mm 1 mps 687 mmHg 73%
    03:00 +22°C° 0 mm 1 mps 687 mmHg 74%
    04:00 +22°C° 0 mm 1 mps 687 mmHg 73%
    05:00 +23°C° 0 mm 1 mps 687 mmHg 71%
    06:00 +23°C° 0 mm 1 mps 688 mmHg 70%
    07:00 +25°C° 0 mm 1 mps 688 mmHg 64%
    08:00 +26°C° 0 mm 2 mps 688 mmHg 58%
    09:00 +28°C° 0 mm 2 mps 689 mmHg 52%
    10:00 +29°C° 0 mm 2 mps 688 mmHg 49%
    11:00 +30°C° 0 mm 3 mps 688 mmHg 46%
    12:00 +31°C° 0 mm 3 mps 688 mmHg 43%
    13:00 +33°C° 0 mm 3 mps 688 mmHg 41%
    14:00 +33°C° 0 mm 3 mps 687 mmHg 40%
    15:00 +34°C° 0 mm 3 mps 687 mmHg 38%
    16:00 +32°C° 0 mm 2 mps 687 mmHg 41%
    17:00 +31°C° 0 mm 2 mps 687 mmHg 45%
    18:00 +31°C° 0 mm 2 mps 686 mmHg 48%
    19:00 +29°C° 0 mm 1 mps 687 mmHg 52%
    20:00 +27°C° 0 mm 1 mps 687 mmHg 56%
    21:00 +25°C° 0 mm 1 mps 687 mmHg 60%
    22:00 +25°C° 0 mm 1 mps 687 mmHg 60%
    23:00 +24°C° 0 mm 1 mps 687 mmHg 60%

    19 July, Friday

    Time Temperature Precipitation Wind Pressure Humidity
    00:00 +24°C° 0 mm 2 mps 687 mmHg 60%
    01:00 +24°C° 0 mm 1 mps 687 mmHg 60%
    02:00 +24°C° 0 mm 1 mps 688 mmHg 61%
    03:00 +23°C° 0 mm 1 mps 688 mmHg 62%
    04:00 +24°C° 0 mm 1 mps 688 mmHg 63%
    05:00 +24°C° 0 mm 1 mps 688 mmHg 64%
    06:00 +24°C° 0 mm 1 mps 689 mmHg 65%
    07:00 +26°C° 0 mm 1 mps 689 mmHg 60%
    08:00 +27°C° 0 mm 1 mps 690 mmHg 56%
    09:00 +29°C° 0 mm 2 mps 690 mmHg 52%
    10:00 +30°C° 0 mm 2 mps 690 mmHg 49%
    11:00 +31°C° 0 mm 3 mps 690 mmHg 47%
    12:00 +33°C° 0 mm 3 mps 690 mmHg 44%
    13:00 +33°C° 0 mm 3 mps 690 mmHg 43%
    14:00 +33°C° 0 mm 3 mps 689 mmHg 42%
    15:00 +34°C° 0 mm 3 mps 689 mmHg 41%
    16:00 +33°C° 0 mm 3 mps 689 mmHg 44%
    17:00 +31°C° 0 mm 3 mps 689 mmHg 48%
    18:00 +30°C° 0 mm 4 mps 689 mmHg 51%
    19:00 +29°C° 0 mm 3 mps 690 mmHg 55%
    20:00 +27°C° 0 mm 3 mps 690 mmHg 59%
    21:00 +25°C° 0 mm 2 mps 691 mmHg 62%
    22:00 +25°C° 0 mm 2 mps 691 mmHg 63%
    23:00 +25°C° 0 mm 2 mps 691 mmHg 63%

    20 July, Saturday

    Time Temperature Precipitation Wind Pressure Humidity
    00:00 +24°C° 0 mm 2 mps 692 mmHg 64%
    01:00 +24°C° 0 mm 2 mps 692 mmHg 64%
    02:00 +24°C° 0 mm 2 mps 692 mmHg 64%
    03:00 +23°C° 0 mm 2 mps 692 mmHg 64%
    04:00 +24°C° 0 mm 2 mps 692 mmHg 64%
    05:00 +24°C° 0 mm 2 mps 693 mmHg 63%
    06:00 +24°C° 0 mm 2 mps 693 mmHg 63%
    07:00 +26°C° 0 mm 2 mps 694 mmHg 56%
    08:00 +28°C° 0 mm 3 mps 694 mmHg 50%
    09:00 +29°C° 0 mm 3 mps 695 mmHg 43%
    10:00 +30°C° 0 mm 3 mps 694 mmHg 41%
    11:00 +32°C° 0 mm 4 mps 694 mmHg 39%
    12:00 +33°C° 0 mm 4 mps 694 mmHg 37%
    13:00 +33°C° 0 mm 5 mps 694 mmHg 37%
    14:00 +34°C° 0 mm 5 mps 694 mmHg 37%
    15:00 +34°C° 0 mm 5 mps 694 mmHg 37%
    16:00 +33°C° 0 mm 5 mps 694 mmHg 40%
    17:00 +32°C° 0 mm 4 mps 694 mmHg 43%
    18:00 +30°C° 0 mm 4 mps 693 mmHg 47%
    19:00 +28°C° 0 mm 3 mps 694 mmHg 52%
    20:00 +26°C° 0 mm 2 mps 694 mmHg 57%
    21:00 +24°C° 0 mm 2 mps 694 mmHg 62%
    22:00 +24°C° 0 mm 2 mps 694 mmHg 62%
    23:00 +24°C° 0 mm 2 mps 694 mmHg 63%

    21 July, Sunday

    Time Temperature Precipitation Wind Pressure Humidity
    00:00 +23°C° 0 mm 2 mps 694 mmHg 63%
    01:00 +23°C° 0 mm 1 mps 694 mmHg 63%
    02:00 +23°C° 0 mm 1 mps 694 mmHg 63%
    03:00 +22°C° 0 mm 1 mps 694 mmHg 62%
    04:00 +23°C° 0 mm 1 mps 694 mmHg 62%
    05:00 +23°C° 0 mm 1 mps 694 mmHg 62%
    06:00 +24°C° 0 mm 1 mps 694 mmHg 62%
    07:00 +25°C° 0 mm 2 mps 694 mmHg 57%
    08:00 +27°C° 0 mm 2 mps 694 mmHg 52%
    09:00 +28°C° 0 mm 2 mps 695 mmHg 47%
    10:00 +29°C° 0 mm 3 mps 694 mmHg 45%
    11:00 +31°C° 0 mm 3 mps 694 mmHg 42%
    12:00 +33°C° 0 mm 3 mps 694 mmHg 39%
    13:00 +34°C° 0 mm 3 mps 694 mmHg 37%
    14:00 +34°C° 0 mm 3 mps 693 mmHg 36%
    15:00 +35°C° 0 mm 3 mps 693 mmHg 35%
    16:00 +34°C° 0 mm 3 mps 692 mmHg 38%
    17:00 +32°C° 0 mm 2 mps 692 mmHg 41%
    18:00 +32°C° 0 mm 2 mps 692 mmHg 44%
    19:00 +30°C° 0 mm 2 mps 692 mmHg 48%
    20:00 +27°C° 0 mm 2 mps 692 mmHg 52%
    21:00 +25°C° 0 mm 1 mps 692 mmHg 57%
    22:00 +25°C° 0 mm 1 mps 692 mmHg 57%
    23:00 +25°C° 0 mm 1 mps 692 mmHg 57%
    Show more